Weather in Chanioti

Greece     39°59′57″N   23°34′21″E
temp.,
°C
wind,
m/s
gust,
m/s
humid.,
%
clouds,
%
prec.,
mm/h
press.,
hPa
HPBL,
m
2 march, tue
tue223:00+9ene8117640 0.1 1030845
02:00+9ene8116566 0.1 10321010
05:00+8ene810639 0.0 1032836
08:00+8ene796516 0.0 10341082
11:00+9nne335782 0.0 10341133
14:00+10wnw336576 0.0 1032894
17:00+9wsw336512 0.0 1030431
20:00+8sse12676 0.0 1031232
3 march, wed
wed323:00+8se23730 0.0 1032246
02:00+7s11750 0.0 1032144
05:00+8nw22740 0.0 1031183
08:00+9nnw23690 0.0 1032169
11:00+12nw33550 0.0 1031357
14:00+14wnw21450 0.0 1030640
17:00+13wsw22480 0.0 1029418
20:00+10s11530 0.0 103076
4 march, thu
thu423:00+10sse22600 0.0 1029133
02:00+10sse23630 0.0 1028207
05:00+9se23640 0.0 1027243
08:00+10se22700 0.0 1026268
11:00+13s22590 0.0 1025697
14:00+14s32560 0.0 1022594
17:00+13s44630 0.0 1020391
20:00+11sse23740 0.0 1020131
5 march, fri
fri523:00+10se22770 0.0 1020115
02:00+11se23780 0.0 1019189
05:00+11ese228038 0.0 1018182
08:00+12ene118035 0.0 1018146
11:00+15nne116427 0.0 1017425
14:00+16se015157 0.0 1015568
17:00+15s225966 0.0 1015197
20:00+13se236383 0.0 101695
6 march, sat
sat623:00+13w1170100 0.0 101741
02:00+13sw126899 0.0 101738
05:00+13nw466498 0.0 1017271
08:00+13wsw236897 0.0 1018132
11:00+15sw225717 0.0 1018424
14:00+16nnw115010 0.0 1018599
17:00+16wsw12530 0.0 1018291
20:00+13wnw23630 0.0 102062